EHI
0 1 3 5 7 7 6 4 2 1 0 0 0 0 0 0 0 0 0 0 1 1 0 0 0 0 0 0 0 0 0 0 1 1 0 0 0 0 0 0 0 1 1
0 1 4 7 8 7 6 5 3 2 1 0 0 0 0 0 0 0 0 1 2 2 1 1 1 1 0 0 0 1 1 1 2 2 1 1 1 1 1 1 1 1 2
1 3 7 9 8 8 8 6 4 2 1 0 0 0 0 0 0 0 0 1 2 3 3 2 2 2 1 1 1 1 2 3 3 3 3 2 2 2 2 2 1 1 1
1 4 9 11 9 8 8 5 3 2 1 0 0 0 0 0 0 0 0 0 1 2 3 3 3 3 3 2 1 1 2 3 3 3 3 3 3 3 3 2 1 0 0
1 4 9 10 8 8 8 5 2 1 0 0 0 1 1 0 0 0 0 0 0 1 1 2 3 3 3 3 2 1 1 1 2 2 2 2 2 2 2 1 1 0 0
1 4 7 7 7 9 10 6 2 0 0 0 1 2 2 1 1 1 0 1 1 0 0 1 2 2 2 2 1 0 0 0 1 1 1 2 2 2 1 1 0 0 0
1 4 6 6 7 11 13 10 5 2 2 2 2 3 4 4 3 2 1 1 1 0 0 0 1 1 1 1 0 0 0 1 1 2 2 3 3 3 3 3 2 1 0
2 4 4 4 7 12 17 15 10 7 6 6 5 4 5 5 4 3 2 1 1 0 0 0 0 0 0 0 0 0 1 2 3 4 4 4 5 4 4 5 5 3 2
2 3 3 3 5 11 16 16 12 11 11 10 8 6 6 5 4 2 1 0 0 0 0 1 1 2 1 1 1 1 1 2 3 4 5 5 5 5 5 6 6 5 4
2 2 2 3 4 8 13 14 12 12 13 13 11 9 7 6 5 3 1 1 1 1 2 2 3 4 4 3 2 2 2 2 3 4 5 5 6 6 5 5 5 5 5
5 4 3 2 3 7 11 13 13 13 14 15 15 13 11 9 7 6 4 4 4 4 4 4 5 5 5 4 3 3 3 3 3 4 5 5 6 6 5 4 4 5 5
7 6 5 4 5 7 11 14 14 14 15 17 20 20 17 13 11 9 9 9 8 8 7 6 7 6 5 4 4 4 4 3 3 4 5 5 5 4 3 3 3 4 4
7 7 7 8 8 8 10 13 15 17 18 20 24 25 22 18 15 13 11 10 10 8 8 8 9 8 6 5 6 6 5 4 4 3 4 5 4 3 1 1 2 2 1
6 7 9 10 11 11 11 12 15 18 20 22 24 24 22 18 17 15 12 11 9 8 8 10 10 9 7 7 9 10 8 7 5 4 4 4 3 2 0 0 1 1 0
9 8 8 10 12 12 12 12 13 17 19 22 23 22 19 17 16 15 13 11 10 10 11 13 13 11 8 8 10 11 10 8 7 5 4 4 2 1 0 0 0 0 0
12 9 9 10 12 13 12 11 13 17 19 21 22 23 21 18 15 14 12 10 11 13 16 17 16 13 10 8 8 10 10 8 7 6 6 4 2 0 0 0 0 0 0
14 13 12 11 12 13 12 10 12 17 20 21 23 25 26 22 17 14 11 9 12 15 16 17 16 15 11 7 6 7 8 8 8 7 6 4 1 0 0 0 0 0 0
18 17 16 14 13 14 14 13 15 19 23 22 22 26 29 25 20 16 12 10 11 13 13 14 14 14 11 7 4 5 7 8 8 7 5 2 0 0 0 0 0 0 0
20 21 20 18 17 18 19 20 21 24 27 27 26 28 29 27 23 19 14 10 9 9 10 11 11 11 10 7 4 4 6 7 7 6 3 1 0 0 0 0 0 0 0
19 22 23 23 23 22 23 26 27 28 29 30 29 29 28 25 22 19 15 10 8 7 8 9 9 9 8 6 4 4 6 6 6 5 2 0 0 0 0 0 0 0 0
16 20 24 25 24 23 24 26 27 26 25 25 25 25 24 21 17 16 15 12 9 7 7 7 7 7 7 5 4 3 4 5 6 5 3 1 0 0 0 0 0 0 0
15 19 23 25 23 22 23 23 22 19 18 18 18 18 19 17 14 14 14 13 10 7 6 6 6 6 6 4 3 2 2 3 4 4 3 1 0 0 0 0 0 0 0
15 18 21 23 22 21 19 17 14 13 12 12 13 14 15 15 13 13 13 12 10 7 5 4 4 4 5 4 2 1 0 1 2 2 2 1 0 0 0 0 0 0 0
11 13 16 18 19 17 15 12 11 10 10 10 11 12 13 13 12 11 12 12 10 8 6 5 4 3 4 3 3 1 0 0 1 1 1 0 0 0 0 0 0 0 0
4 6 8 11 13 14 12 10 9 9 9 9 10 11 12 12 11 10 10 10 9 8 7 6 4 3 3 3 2 1 0 0 0 0 0 0 0 0 0 0 0 0 0
1 2 3 6 10 12 12 10 8 8 8 8 10 11 11 11 11 10 9 8 8 7 6 5 5 4 3 3 2 1 0 0 0 0 0 0 0 0 0 0 0 0 0
Wind_Speed
5 4 4 5 4 4 4 3 3 3 3 2 2 1 0 0 0 0 0 1 2 2 2 2 2 2 2 2 2 2 2 2 2 2 2 2 2 2 1 0 0 1 1
5 5 5 5 5 5 4 4 4 3 3 2 2 2 1 1 0 0 1 0 1 2 2 2 2 2 2 2 2 3 2 1 1 2 2 1 2 2 2 2 1 1 1
9 7 6 6 5 5 6 5 4 4 3 3 2 2 2 1 1 1 1 0 1 2 2 2 2 2 2 2 2 3 3 2 1 1 2 2 1 1 2 2 2 2 1
8 7 7 7 7 6 5 5 4 4 3 3 3 3 2 2 1 1 0 0 0 1 2 2 2 2 2 2 2 2 2 3 2 1 0 1 2 2 0 1 1 2 2
10 9 9 8 7 6 5 5 4 3 3 4 4 4 3 2 1 1 0 0 0 1 1 2 2 2 2 2 2 2 2 2 2 2 1 1 1 1 2 1 0 1 1
9 8 7 6 6 5 5 5 4 3 3 4 4 4 4 4 3 2 1 1 0 0 0 1 1 2 2 2 2 2 3 2 2 2 2 2 2 2 2 2 1 0 1
9 9 9 8 7 7 7 6 5 4 4 4 4 5 5 4 4 3 2 1 1 0 1 1 1 1 1 2 2 2 2 2 3 2 2 2 2 2 2 2 1 1 0
8 9 10 10 9 9 8 7 6 5 5 5 4 4 4 3 2 3 2 2 1 1 1 1 1 1 1 2 2 2 2 2 2 3 2 2 2 2 3 3 3 1 1
8 9 8 9 9 9 8 8 8 6 5 5 5 4 4 3 3 3 2 1 1 1 2 2 2 1 1 1 2 2 2 2 2 2 2 2 1 2 2 2 3 3 2
7 7 7 8 8 8 7 6 7 7 6 5 5 4 4 4 4 3 3 2 2 1 2 2 2 1 1 1 2 1 1 2 1 1 1 1 1 1 2 2 2 2 3
6 6 6 7 7 6 6 6 6 5 5 5 5 4 4 4 4 3 3 2 2 2 2 2 2 2 1 2 2 1 1 1 0 0 1 1 1 1 1 2 2 2 2
4 4 4 4 5 6 6 6 6 6 6 5 5 5 4 4 4 3 3 3 3 3 3 2 2 2 2 2 2 2 1 1 1 1 1 1 1 1 1 2 2 2 3
3 3 3 3 4 5 5 6 6 6 5 6 6 5 5 5 5 4 3 3 3 3 2 2 2 2 2 2 2 2 2 2 2 2 1 1 1 1 1 2 2 2 2
4 4 3 3 3 3 4 5 5 5 6 6 6 6 6 6 5 4 4 3 3 3 3 2 2 2 2 2 2 2 2 2 1 1 1 2 2 3 3 2 2 3 3
2 4 4 3 3 2 3 3 4 5 5 6 6 6 5 5 5 4 4 3 3 3 3 2 2 2 2 2 3 3 2 2 1 1 1 1 2 3 3 3 3 4 3
2 3 3 3 3 4 3 3 4 4 4 6 6 5 5 5 5 5 4 4 3 3 3 3 3 2 2 3 4 3 2 2 2 2 1 1 1 2 3 4 4 5 5
1 2 2 3 4 4 4 5 5 4 4 5 5 6 6 6 6 6 5 5 4 3 3 3 3 3 3 4 4 4 3 3 3 3 2 1 1 1 2 2 3 4 5
0 0 1 2 2 2 2 3 3 4 4 4 5 5 6 6 6 5 5 5 4 4 4 4 4 3 3 4 5 4 3 3 3 3 3 2 2 2 2 2 2 2 3
1 1 1 2 2 2 2 3 3 3 4 4 4 4 5 5 6 6 6 5 4 4 4 3 4 4 4 4 5 5 3 2 2 2 2 3 3 3 4 3 3 2 1
1 1 1 2 2 2 3 3 2 3 3 4 3 3 4 5 6 6 5 4 4 4 3 3 4 4 4 5 6 6 3 3 2 1 2 3 3 3 4 4 3 3 2
1 1 2 2 1 2 3 3 2 3 3 3 3 2 3 4 5 4 4 3 3 3 3 3 3 3 4 4 6 6 4 4 3 2 2 2 3 3 4 4 3 4 3
2 2 2 1 1 2 3 2 2 2 2 2 2 2 3 3 3 4 3 3 4 4 3 3 3 2 2 3 5 7 6 4 3 3 2 2 3 4 4 3 4 4 3
1 1 1 1 1 0 2 2 2 1 2 2 2 2 2 2 3 4 4 3 3 3 4 3 3 2 1 2 4 5 6 6 3 2 3 3 4 3 2 3 4 4 3
1 0 1 1 2 1 1 2 1 1 2 3 2 2 2 2 2 3 3 4 4 4 4 3 3 2 2 2 2 2 2 3 3 2 2 2 2 1 1 1 2 3 3
1 0 0 1 2 2 2 2 2 2 3 3 3 2 3 3 3 3 3 4 4 5 5 4 4 4 3 4 5 4 3 3 3 2 1 1 1 1 1 1 1 1 2
2 1 1 2 2 2 3 3 2 3 4 3 3 2 2 2 3 3 1 1 1 2 4 4 4 3 4 4 6 6 5 5 5 4 2 2 2 3 3 3 2 2 3
Wind_Direction
205 188 182 167 157 157 156 163 161 162 144 126 128 119 120 4 18 331 285 162 165 159 152 156 153 147 156 162 146 130 117 107 114 94 58 32 37 51 37 57 149 202 215
191 186 181 173 169 172 174 177 181 175 171 156 145 145 137 133 137 355 28 123 154 159 161 158 159 156 158 153 146 141 130 139 136 130 111 38 9 23 33 38 61 41 60
197 191 185 185 177 183 187 190 191 186 180 161 125 103 83 58 49 24 355 343 162 168 162 162 162 162 167 176 174 169 162 169 176 143 148 152 196 325 10 34 45 49 52
194 191 188 187 191 196 187 182 183 184 176 161 157 160 162 177 202 191 241 315 174 168 165 167 168 173 174 182 196 179 173 162 173 156 132 155 156 160 83 8 29 41 38
193 193 192 192 194 190 181 178 172 183 178 168 171 166 171 180 165 140 184 307 324 190 179 174 173 178 185 190 193 177 171 169 171 170 158 134 109 151 168 228 333 32 17
192 191 186 179 184 183 179 172 172 191 182 174 175 175 179 178 169 180 201 238 298 309 175 162 171 180 183 191 191 178 176 181 179 176 171 170 169 179 176 196 224 298 339
185 182 180 183 185 184 185 178 177 195 190 183 187 186 186 181 186 195 200 198 194 217 221 172 170 180 190 186 175 170 181 185 186 192 199 197 200 173 165 163 184 211 261
184 188 189 189 190 193 190 184 185 196 191 189 193 184 180 181 192 196 192 193 200 208 195 171 165 168 171 176 169 168 185 180 193 204 197 201 210 184 173 172 167 175 218
187 191 190 188 190 192 191 188 187 194 192 192 185 176 173 179 188 188 179 178 190 184 167 153 143 149 162 170 158 162 179 169 186 201 203 213 222 198 193 178 174 170 195
186 191 192 190 190 191 189 185 187 195 193 189 192 184 174 182 186 177 179 181 182 165 147 141 140 136 124 134 142 156 169 157 185 188 190 214 217 193 183 178 177 178 180
185 190 193 187 180 175 176 182 188 187 184 186 185 178 174 173 170 174 185 182 176 168 163 166 160 150 142 137 136 145 141 145 144 156 184 213 179 173 180 175 175 171 162
170 173 172 165 171 178 181 185 191 190 188 181 179 181 174 167 171 179 185 177 173 173 171 168 164 171 161 153 155 165 158 163 188 225 196 224 175 163 175 175 179 176 170
141 138 136 159 180 181 182 187 191 195 191 178 177 178 178 177 183 186 182 175 175 171 163 161 169 174 169 166 171 170 171 186 213 224 214 229 180 182 182 177 176 173 159
151 149 156 174 181 180 183 189 193 190 183 178 175 184 191 190 188 183 178 176 177 172 172 172 177 182 181 180 178 169 172 184 206 215 211 215 200 203 191 178 177 166 154
149 165 173 179 178 182 185 193 196 189 181 178 185 196 194 188 178 177 179 177 180 183 177 172 185 196 194 196 188 184 179 177 177 197 228 219 193 190 193 182 178 169 166
178 173 167 168 180 193 194 191 200 197 180 184 195 192 187 187 182 185 181 175 179 184 180 191 195 205 219 204 191 180 178 182 188 205 233 226 204 189 187 183 177 174 173
168 166 182 187 195 204 194 193 198 180 177 193 191 188 187 190 192 188 178 186 193 191 198 209 198 210 223 205 197 191 187 195 205 206 214 227 229 200 189 183 177 188 188
147 180 191 199 211 206 200 184 163 161 174 190 195 192 189 191 188 182 187 194 193 192 204 213 209 210 225 206 199 193 194 204 215 212 203 201 223 212 180 173 174 193 203
193 197 207 193 165 173 166 142 156 158 170 196 202 200 193 192 188 191 196 197 192 198 202 201 201 210 226 208 198 186 189 201 224 228 214 202 206 207 177 165 173 193 240
29 61 97 102 108 128 133 129 150 162 194 209 210 205 194 195 200 202 197 194 188 197 189 198 204 210 219 210 199 187 187 197 217 233 232 213 203 198 182 176 175 196 233
10 36 68 84 102 124 124 135 152 201 217 203 189 187 189 200 204 200 192 182 175 178 193 208 222 221 219 211 201 192 194 199 207 217 226 231 204 197 193 189 198 211 209
23 32 53 42 49 128 139 159 206 221 186 174 181 189 196 201 199 187 185 178 175 183 205 215 232 236 223 210 209 202 203 197 193 207 209 208 203 203 200 198 202 197 181
7 24 74 21 345 164 151 197 239 187 160 172 194 199 203 198 186 187 186 179 183 193 210 212 223 239 226 219 213 203 199 193 195 208 201 203 201 200 200 201 199 189 181
331 15 75 35 316 298 218 226 229 178 183 194 214 214 192 188 191 203 189 184 192 202 209 214 220 222 210 213 206 200 196 192 200 207 191 190 194 174 177 189 196 195 195
317 332 201 240 272 286 282 252 218 186 196 207 206 202 193 188 195 202 198 199 208 207 205 213 202 196 213 222 203 188 190 188 189 159 136 137 162 188 208 214 218 219 203
294 286 277 268 270 271 273 263 224 197 195 207 211 210 204 198 194 191 199 200 199 193 199 201 195 209 214 192 185 188 188 176 158 147 169 194 208 218 223 226 231 228 226